Regional Weather Roundup
Issued by NWS Midland/Odessa, TX

Skip options and go directly to product.
Home | Oldest Version | Previous Version | Current Version | All | Text Only | Save Text | Print | Product List | Glossary On

Skip product version selection by date and time.   
920
ASUS44 KMAF 020810
RWRMAF
MIDLAND AREA WEATHER ROUNDUP
NATIONAL WEATHER SERVICE MIDLAND TX
300 AM CDT THU JUL 02 2015

...IN SOUTHWEST TEXAS AND SOUTHEAST NEW MEXICO...

CITY           SKY/WX    TMP DP  RH WIND       PRES   REMARKS
ALPINE         NOT AVBL
ANDREWS        NOT AVBL
ARTESIA        CLEAR     73  61  64 S10       30.02F
BIG SPRING     NOT AVBL
CARLSBAD       CLEAR     75  62  64 SE8       30.00F
DRYDEN           N/A     73  68  84 VRB5      29.98S
FORT STOCKTON  CLEAR     72  65  78 SE15G22   29.99F
GUAD PASS      CLEAR     69  58  67 NE17      30.15S
HOBBS          CLEAR     68  64  88 SE7       30.05F
MARFA          CLEAR    N/A N/A N/A CALM      30.13S
MIDLAND AIRPK  MOCLDY    74  67  77 S8        30.02F
MIDLAND INTL   MOCLDY    73  65  75 S9        30.01F
ODESSA         PTCLDY    73  65  75 S15       30.02F
PECOS          NOT AVBL
PRESIDIO       NOT AVBL
SEMINOLE       NOT AVBL
SNYDER         NOT AVBL
WINK           CLEAR     73  65  75 SE10      29.98F
$$
...OTHER STATIONS IN TEXAS...

CITY           SKY/WX    TMP DP  RH WIND       PRES   REMARKS
ABILENE        CLEAR     74  65  73 S16       29.97F
AMARILLO       LGT RAIN  77  61  57 W14G22    30.05R
AUSTIN         MOCLDY    70  70 100 S7        29.99F
BROWNSVILLE    CLEAR     72  69  90 E5        29.98F
CORPUS CHRISTI CLOUDY    73  70  90 SE7       29.99F
DALLAS FTW     PTCLDY    78  68  71 S14       29.94R
DEL RIO        CLEAR     74  65  73 E7        29.97S
EL PASO        PTCLDY    79  48  33 E6        29.98S
HOUSTON INT    PTCLDY    73  71  93 CALM      30.01F
LUBBOCK        MOCLDY    74  63  68 S16       30.01F
SAN ANGELO     CLEAR     73  67  81 S12       30.00F
SAN ANTONIO    PTCLDY    73  69  87 S8        30.00F
WACO           CLEAR     73  70  90 S12       29.97F
WICHITA FALLS  NOT AVBL
$$
...OTHER LOCATIONS IN NEW MEXICO...

CITY           SKY/WX    TMP DP  RH WIND       PRES   REMARKS
ALAMAGORDO     PTCLDY    73  46  38 CALM      30.02S
ALBUQUERQUE    CLOUDY    79  49  34 E18G31    30.12S
CANNON AFB     CLOUDY    71  59  66 SW7       30.08R
CLOVIS         MOCLDY    66  59  77 SW8         N/A
HOLLOMAN AFB   PTCLDY    77  47  33 S7        30.00S
ROSWELL        CLEAR     71  59  65 S5        30.02F
RUIDOSO        CLEAR     64  48  55 W7        30.26F
SANTA FE       CLOUDY    69  53  56 SE10G18   30.22R
TRUTH OR CONSE PTCLDY    76  43  30 N3        30.07R
TUCUMCARI      CLOUDY    75  59  57 N17G26    30.10R
$$

USA.gov is the U.S. government's official web portal to all federal, state and local government web resources and services.